Weather History for YSSY - May, 2014

Change the Weather History Date:

Wednesday, May 21, 2014

  Actual Average Record
Temperature  
Mean Temperature 64 °F -  
Max Temperature 70 °F 64 °F 75 °F (2011)
Min Temperature 57 °F 48 °F 48 °F (2013)
Degree Days  
Heating Degree Days 2    
Growing Degree Days 14 (Base 50)    
Moisture  
Dew Point 56 °F    
Average Humidity 70    
Maximum Humidity 88    
Minimum Humidity 53    
Precipitation  
Precipitation 0.00 in 0.15 in - ()
Sea Level Pressure  
Sea Level Pressure 30.20 in    
Wind  
Wind Speed 8 mph ()    
Max Wind Speed 13 mph    
Max Gust Speed -    
Visibility 9.0 miles    
Events      
Averages and records for this station are not official NWS values.
T = Trace of Precipitation, MM = Missing Value Source: Averaged Metar Reports

Daily Weather History Graph

Daily Weather History Graph

Search for Another Location

Airport or City:

Trip Planner

Search our weather history database for the weather conditions in past years. The results will help you decide how hot, cold, wet, or windy it might be!

Date:

Astronomy

May. 21, 2014 Rise Set
Actual Time 6:44 AM AEST 4:58 PM AEST
Civil Twilight 6:17 AM AEST 5:25 PM AEST
Nautical Twilight 5:47 AM AEST 5:56 PM AEST
Astronomical Twilight 5:17 AM AEST 6:26 PM AEST
Moon 11:45 PM AEST (5/21) 12:03 PM AEST (5/21)
Length of Visible Light 11h 08m
Length of Day
10h 14m
Waning Gibbous, 55% of the Moon is Illuminated
May 21
Waning Gibbous
May 21
Last Quarter
May 29
New
Jun 6
First Quarter
Jun 13
Full

Hourly Weather History & Observations

Time (AEST) Temp. Dew Point Humidity Pressure Visibility Wind Dir Wind Speed Gust Speed Precip Events Conditions
12:00 AM 62 °F 50 °F 56% 30.16 in 19 mi West 10.4 mph - -   Partly Cloudy
12:00 AM 60.8 °F 50.0 °F 68% 30.15 in 6.2 mi West 10.4 mph - N/A   Partly Cloudy
12:30 AM 60.8 °F 50.0 °F 68% 30.15 in 6.2 mi WNW 10.4 mph - N/A   Partly Cloudy
1:00 AM 61 °F 49 °F 55% 30.16 in - WNW 10.4 mph - -  
1:00 AM 60.8 °F 50.0 °F 68% 30.15 in 6.2 mi WNW 10.4 mph - N/A   Partly Cloudy
1:30 AM 60.8 °F 50.0 °F 68% 30.15 in - West 10.4 mph - N/A   Clear
2:00 AM 60 °F 50 °F 60% 30.16 in - WNW 9.2 mph - -  
2:00 AM 59.0 °F 50.0 °F 72% 30.15 in - WNW 9.2 mph - N/A   Clear
2:30 AM 59.0 °F 50.0 °F 72% 30.15 in - North 8.1 mph - N/A   Clear
3:00 AM 59 °F 49 °F 62% 30.16 in 19 mi North 9.2 mph - -   Partly Cloudy
3:00 AM 59.0 °F 50.0 °F 72% 30.15 in - North 9.2 mph - N/A   Clear
3:30 AM 60.8 °F 50.0 °F 68% 30.15 in - NNW 10.4 mph - N/A   Clear
4:00 AM 58 °F 50 °F 67% 30.17 in - North 10.4 mph - -  
4:00 AM 59.0 °F 50.0 °F 72% 30.15 in - North 10.4 mph - N/A   Clear
4:30 AM 59.0 °F 50.0 °F 72% 30.15 in - NNW 9.2 mph - N/A   Clear
5:00 AM 59 °F 50 °F 64% 30.18 in - NW 9.2 mph - -  
5:00 AM 59.0 °F 50.0 °F 72% 30.18 in - NW 9.2 mph - N/A   Clear
5:30 AM 59.0 °F 50.0 °F 72% 30.18 in - WNW 6.9 mph - N/A   Clear
6:00 AM 59 °F 50 °F 64% 30.20 in 19 mi WNW 8.1 mph - -   Partly Cloudy
6:00 AM 59.0 °F 50.0 °F 72% 30.18 in 6.2 mi WNW 8.1 mph - N/A   Partly Cloudy
6:30 AM 59.0 °F 50.0 °F 72% 30.21 in 6.2 mi WNW 8.1 mph - N/A   Partly Cloudy
7:00 AM 59 °F 50 °F 63% 30.22 in - WNW 8.1 mph - -  
7:00 AM 59.0 °F 50.0 °F 72% 30.21 in 6.2 mi WNW 8.1 mph - N/A   Partly Cloudy
7:30 AM 60.8 °F 50.0 °F 68% 30.21 in 6.2 mi WNW 6.9 mph - N/A   Partly Cloudy
8:00 AM 63 °F 50 °F 53% 30.24 in - West 6.9 mph - -  
8:00 AM 62.6 °F 50.0 °F 63% 30.24 in 6.2 mi West 6.9 mph - N/A   Partly Cloudy
8:30 AM 66.2 °F 51.8 °F 60% 30.24 in 6.2 mi WSW 8.1 mph - N/A   Partly Cloudy
9:00 AM 66 °F 56 °F 63% 30.25 in 19 mi SW 8.1 mph - -   Partly Cloudy
9:00 AM 66.2 °F 57.2 °F 73% 30.24 in 6.2 mi SW 8.1 mph - N/A   Partly Cloudy
9:30 AM 68.0 °F 60.8 °F 78% 30.24 in 6.2 mi South 12.7 mph - N/A   Partly Cloudy
10:00 AM 68 °F 60 °F 70% 30.26 in - South 12.7 mph - -  
10:00 AM 68.0 °F 60.8 °F 78% 30.24 in 6.2 mi South 12.7 mph - N/A   Scattered Clouds
10:30 AM 68.0 °F 60.8 °F 78% 30.24 in 6.2 mi South 11.5 mph - N/A   Scattered Clouds
11:00 AM 69 °F 61 °F 68% 30.25 in - South 10.4 mph - -  
11:00 AM 69.8 °F 60.8 °F 73% 30.24 in 6.2 mi South 10.4 mph - N/A   Scattered Clouds
11:30 AM 69.8 °F 60.8 °F 73% 30.21 in 6.2 mi SSE 12.7 mph - N/A   Partly Cloudy
12:00 PM 70 °F 60 °F 61% 30.22 in 19 mi South 10.4 mph - -   Partly Cloudy
12:00 PM 69.8 °F 59.0 °F 68% 30.21 in 6.2 mi South 10.4 mph - N/A   Partly Cloudy
12:30 PM 69.8 °F 60.8 °F 73% 30.21 in 6.2 mi South 10.4 mph - N/A   Partly Cloudy
1:00 PM 69 °F 60 °F 67% 30.21 in - South 11.5 mph - -  
1:00 PM 69.8 °F 60.8 °F 73% 30.18 in 6.2 mi South 11.5 mph - N/A   Partly Cloudy
1:30 PM 69.8 °F 60.8 °F 73% 30.18 in 6.2 mi South 10.4 mph - N/A   Partly Cloudy
2:00 PM 69 °F 61 °F 68% 30.20 in - South 9.2 mph - -  
2:00 PM 69.8 °F 60.8 °F 73% 30.18 in 6.2 mi South 9.2 mph - N/A   Partly Cloudy
2:30 PM 69.8 °F 59.0 °F 68% 30.18 in 6.2 mi SE 8.1 mph - N/A   Partly Cloudy
3:00 PM 70 °F 57 °F 54% 30.20 in 19 mi SE 8.1 mph - -   Partly Cloudy
3:00 PM 69.8 °F 57.2 °F 64% 30.18 in 6.2 mi SE 8.1 mph - N/A   Partly Cloudy
3:30 PM 69.8 °F 59.0 °F 68% 30.18 in 6.2 mi SE 9.2 mph - N/A   Partly Cloudy
4:00 PM 69 °F 59 °F 63% 30.19 in - SE 6.9 mph - -  
4:00 PM 68.0 °F 59.0 °F 73% 30.18 in 6.2 mi SE 6.9 mph - N/A   Partly Cloudy
4:30 PM 68.0 °F 59.0 °F 73% 30.18 in 6.2 mi ESE 6.9 mph - N/A   Partly Cloudy
5:00 PM 68 °F 59 °F 65% 30.20 in - East 6.9 mph - -  
5:00 PM 68.0 °F 59.0 °F 73% 30.18 in 6.2 mi East 6.9 mph - N/A   Partly Cloudy
5:30 PM 68.0 °F 59.0 °F 73% 30.18 in 6.2 mi NE 5.8 mph - N/A   Partly Cloudy
6:00 PM 68 °F 58 °F 61% 30.21 in 19 mi ENE 5.8 mph - -   Partly Cloudy
6:00 PM 68.0 °F 57.2 °F 68% 30.18 in - NE 5.8 mph - N/A   Clear
6:30 PM 66.2 °F 57.2 °F 73% 30.21 in - NE 4.6 mph - N/A   Clear
7:00 PM 68 °F 58 °F 63% 30.22 in - NNE 5.8 mph - -  
7:00 PM 68.0 °F 59.0 °F 73% 30.21 in - NNE 5.8 mph - N/A   Clear
7:30 PM 68.0 °F 59.0 °F 73% 30.21 in - Calm Calm - N/A   Clear
8:00 PM 67 °F 59 °F 68% 30.22 in - North 5.8 mph - -  
8:00 PM 66.2 °F 59.0 °F 78% 30.21 in - North 5.8 mph - N/A   Clear
8:30 PM 66.2 °F 59.0 °F 78% 30.21 in - WNW 4.6 mph - N/A   Clear
9:00 PM 64 °F 59 °F 78% 30.23 in 16 mi WSW 5.8 mph - -   Partly Cloudy
9:00 PM 64.4 °F 59.0 °F 83% 30.21 in - WSW 5.8 mph - N/A   Clear
9:30 PM 64.4 °F 59.0 °F 83% 30.21 in - West 5.8 mph - N/A   Clear
10:00 PM 64 °F 58 °F 77% 30.23 in - NW 5.8 mph - -  
10:00 PM 64.4 °F 59.0 °F 83% 30.21 in - NW 5.8 mph - N/A   Clear
10:30 PM 64.4 °F 59.0 °F 83% 30.21 in - NW 6.9 mph - N/A   Clear
11:00 PM 62 °F 58 °F 81% 30.23 in - NW 5.8 mph - -  
11:00 PM 62.6 °F 57.2 °F 82% 30.21 in - NW 5.8 mph - N/A   Clear
11:30 PM 60.8 °F 57.2 °F 88% 30.21 in - NNW 8.1 mph - N/A   Clear